Location: Junction City
(42.7860°N, 96.7861°W)
Time: 19:31:28
(UTC+00:00)

X-37B - Visible Passes

Search period start: 29 November 2020 00:00
Search period end: 09 December 2020 00:00
Orbit: 384 x 389 km, 45.0° (Epoch: 12 November)

Date Brightness Start Highest point End Pass type
(mag) Time Alt. Az. Time Alt. Az. Time Alt. Az.
29 Nov 1.2 00:51:20 10° WSW 00:53:55 55° SW 00:53:55 55° SW visible
29 Nov 1.1 23:52:54 10° SW 23:55:57 47° SSE 23:58:00 18° E visible
30 Nov 3.6 01:29:26 10° W 01:30:16 17° W 01:30:16 17° W visible
01 Dec 0.5 00:30:46 10° W 00:33:56 75° NNW 00:34:20 63° NE visible
01 Dec 0.6 23:32:11 10° WSW 23:35:21 76° SSE 23:38:22 11° ENE visible
02 Dec 2.6 01:08:58 10° W 01:10:39 27° WNW 01:10:39 27° WNW visible
03 Dec 0.8 00:10:18 10° W 00:13:26 60° N 00:14:41 32° ENE visible
04 Dec 1.4 00:48:29 10° WNW 00:51:00 45° NW 00:51:00 45° NW visible
04 Dec 0.9 23:49:50 10° W 23:52:58 54° N 23:55:05 18° ENE visible
05 Dec 3.5 01:26:33 10° WNW 01:27:22 17° WNW 01:27:22 17° WNW visible
06 Dec 0.5 00:27:58 10° WNW 00:31:07 66° N 00:31:30 58° NE visible
06 Dec 0.8 23:29:21 10° WNW 23:32:29 56° N 23:35:37 10° E visible
07 Dec 2.3 01:06:02 10° WNW 01:08:00 33° W 01:08:00 33° W visible
08 Dec 0.5 00:07:25 10° WNW 00:10:36 88° NNE 00:12:19 25° ESE visible
08 Dec 4.2 01:44:26 10° W 01:44:37 11° W 01:44:37 11° W visible
